Regional Weather Roundup
Issued by NWS Jackson, KY

Home | Current Version | Previous Version | Text Only | Print | Product List | Glossary Off
Versions: 1 2 3 4 5 6 7 8 9 10 11 12 13 14 15 16 17 18 19 20 21 22 23 24 25 26 27

000
ASUS43 KJKL 211610
RWRJKL

EAST KENTUCKY HOURLY WEATHER ROUNDUP
NATIONAL WEATHER SERVICE JACKSON KY
1200 PM EDT SAT OCT 21 2017

NOTE: "FAIR" INDICATES FEW OR NO CLOUDS BELOW 12,000 FEET WITH
NO SIGNIFICANT WEATHER AND/OR OBSTRUCTIONS TO VISIBILITY.

* THESE REPORTS ARE NOT UNDER NWS QUALITY CONTROL AND MAY NOT
  REPORT WEATHER SUCH AS PRECIPITATION AND FOG.

KYZ079-080-083-085-087-088-110-112-115-119-120-211700
...EASTERN KENTUCKY...

CITY           SKY/WX    TMP DP  RH WIND       PRES   REMARKS
JACKSON        MOSUNNY   67  52  58 VRB3      30.32R
LONDON         CLOUDY    66  52  60 CALM      30.31S
SOMERSET*      MOSUNNY   64  50  59 S6        30.31F
MONTICELLO*    MOSUNNY   71  51  49 VRB5      30.31S
WILLIAMSBURG*  CLOUDY    66  54  63 SE7       30.31F
MIDDLESBORO*   CLOUDY    59  53  81 CALM      30.33F
HARLAN APT*    MOSUNNY   64  52  63 CALM      30.33S
PIKE CO APT*     N/A     64  51  62 CALM      30.32S
BIG SANDY APT* MOSUNNY   70  53  55 CALM      30.31S
MOREHEAD APT*  PTSUNNY   66  54  63 VRB3      30.31S
$$

KYZ035-036-041-042-044-050-067-078-099-211700
...CENTRAL KENTUCKY...

CITY           SKY/WX    TMP DP  RH WIND       PRES   REMARKS
MT STERLING*   MOSUNNY   68  52  56 SW7       30.31S
FLEMING/MASON* MOSUNNY   70  53  54 SW6       30.30S
DANVILLE*      MOSUNNY   72  46  40 SW9       30.29S
LEXINGTON      MOSUNNY   71  51  49 SW13      30.28S
FRANKFORT      MOSUNNY   71  51  49 S6        30.26S
LOUISVILLE     PTSUNNY   69  51  52 S9        30.24S
LEBANON*         N/A     68  48  49 S10       30.27S
GLASGOW*       MOSUNNY   71  49  45 S7        30.26S
BOWLING GREEN  MOSUNNY   70  53  54 S9        30.24F
$$

KYZ091>093-OHZ055-061-077-WVZ005-015-034-035-042-211700
...SOUTHERN OHIO/WEST VIRGINIA...

CITY           SKY/WX    TMP DP  RH WIND       PRES   REMARKS
COVINGTON      PTSUNNY   68  52  56 SW6       30.25S
COLUMBUS       PTSUNNY   68  50  52 S6        30.27S
DAYTON         PTSUNNY   69  55  60 S8        30.25S
WILMINGTON     SUNNY     70  54  56 SW8       30.26S HAZE
HUNTINGTON     MOSUNNY   69  53  56 S5        30.29S
CHARLESTON     MOSUNNY   71  52  50 CALM      30.30S
PINEVILLE*     SUNNY     70  49  47 MISG      30.39S
BECKLEY        SUNNY     70  44  39 CALM      30.36R
BLUEFIELD      SUNNY     67  40  37 SW6       30.38R
LOGAN CO APT*    N/A     70  48  46 CALM      30.32S
$$

VAZ002-007-008-TNZ017-027-036-066-071-211700
...SOUTHWEST VIRGINIA/EAST TENNESSEE...

CITY           SKY/WX    TMP DP  RH WIND       PRES   REMARKS
WISE*          MOSUNNY   68  45  42 CALM      30.37F
JONESVILLE*      N/A     68  46  45 CALM      30.35F
ABINGDON*      MOSUNNY   70  47  43 E3        30.35S
BRISTOL        PTSUNNY   66  52  60 CALM      30.34S
MORRISTOWN*    SUNNY     66  50  55 CALM      30.32S
SEVIERVILLE*   SUNNY     66  50  55 CALM      30.31F
KNOXVILLE      CLOUDY    64  55  72 CALM      30.31S
LAFOLLETTE*    SUNNY     61  52  72 CALM      30.36F
CROSSVILLE     CLOUDY    68  45  43 VRB7      30.33S
NASHVILLE      PTSUNNY   74  50  42 S15       30.24F
$$

...KEY TO REMARKS...
VSB - VISIBILITY IN MILES
WCI - WIND CHILL INDEX
HX  - HEAT INDEX

$$




USA.gov is the U.S. government's official web portal to all federal, state and local government web resources and services.